Terminal Aerodrome Forecast
Issued by NWS Upton, NY

Home | Current Version | Previous Version | Text Only | Print | Product List | Glossary On
Versions: 1 2 3 4 5 6 7 8 9 10 11 12 13 14 15 16 17 18 19 20 21 22 23 24
000
FTUS41 KOKX 040830 AAA
TAFBDR
TAF AMD
KBDR 040830Z 0409/0506 VRB03KT P6SM SKC
     FM041300 21007KT P6SM SKC
     FM041700 20012G18KT P6SM SCT250
     FM050000 21010KT P6SM SCT250=

USA.gov is the U.S. government's official web portal to all federal, state and local government web resources and services.